Location: Unnamed
(48.2382°N, 16.3826°E)
Time: 10:07:12
(UTC+02:00)

Falcon 9 debris - Pass Details

Date: 16 August 2020
Orbit: 426 x 434 km, 53.0° (Epoch: 23 September)

Event Time Altitude Azimuth Distance (km) Brightness Sun altitude
Rises 22:35:45 0° 291° (WNW) 2,412 ? -20.7°
Reaches altitude 10° 22:37:56 10° 299° (WNW) 1,544 ? -20.9°
Maximum altitude 22:41:15 42° 12° (NNE) 638 ? -21.3°
Enters shadow 22:41:53 37° 42° (NE) 692 ? -21.3°
